Location: *
(46.0770°N, 1.6444°E)
Time: 18:24:34
(UTC+00:00)

Cosmos 2227 Rocket - Pass Details

Date: 16 September 2019
Orbit: 837 x 847 km, 71.0° (Epoch: 23 October)

Event Time Altitude Azimuth Distance (km) Brightness Sun altitude
Exits shadow 19:39:09 26° 94° (E) 1,605 3.1 -16.9°
Drops below altitude 10° 19:43:17 10° 48° (NE) 2,470 4.4 -17.6°
Sets 19:46:05 0° 36° (NE) 3,411 5.2 -18.0°
